Waukesha, WI

10:10 AM CDT on May 24, 2017 (GMT -0500)
Waukesha County

Weather History for KUES - November, 2010

Change the Weather History Date:

Tuesday, November 30, 2010

  Actual Average Record
Temperature  
Mean Temperature 34 °F -  
Max Temperature 44 °F 39 °F 64 °F (1998)
Min Temperature 23 °F 24 °F -2 °F (1976)
Degree Days  
Heating Degree Days 32    
Moisture  
Dew Point 29 °F    
Average Humidity 87    
Maximum Humidity 100    
Minimum Humidity 75    
Precipitation  
Precipitation 0.02 in - - ()
Sea Level Pressure  
Sea Level Pressure 29.63 in    
Wind  
Wind Speed 10 mph (SW)    
Max Wind Speed 21 mph    
Max Gust Speed 29 mph    
Visibility 7 miles    
Events Rain , Snow    
Averages and records for this station are not official NWS values.
T = Trace of Precipitation, MM = Missing Value Source: NWS Daily Summary

Daily Weather History Graph

Daily Weather History Graph

Search for Another Location

Airport or City:

Trip Planner

Search our weather history database for the weather conditions in past years. The results will help you decide how hot, cold, wet, or windy it might be!

Date:

Astronomy

Nov. 30, 2010 Rise Set
Actual Time 7:03 AM CST 4:19 PM CST
Civil Twilight 6:31 AM CST 4:51 PM CST
Nautical Twilight 5:56 AM CST 5:26 PM CST
Astronomical Twilight 5:22 AM CST 6:00 PM CST
Moon 1:11 AM CST (11/30) 12:56 PM CST (11/30)
Length of Visible Light 10h 19m
Length of Day
9h 16m
Waning Crescent, 29% of the Moon is Illuminated
Nov 30
Waning Crescent
Dec 5
New
Dec 13
First Quarter
Dec 21
Full
Dec 27
Last Quarter

Hourly Weather History & Observations

Time (CST) Temp. Windchill Dew Point Humidity Pressure Visibility Wind Dir Wind Speed Gust Speed Precip Events Conditions
12:14 AM 43.7 °F 38.1 °F 41.9 °F 93% 29.58 in 2.5 mi SSE 10.4 mph - N/A Rain Light Rain
12:34 AM 43.9 °F 38.3 °F 41.9 °F 93% 29.59 in 3.0 mi SSE 10.4 mph - 0.01 in Rain Light Rain
12:54 AM 43.9 °F 38.8 °F 42.1 °F 93% 29.57 in 3.0 mi SSE 9.2 mph - 0.02 in   Heavy Drizzle
1:34 AM 43.7 °F 40.3 °F 41.9 °F 93% 29.56 in 3.0 mi SSE 5.8 mph - N/A   Drizzle
1:54 AM 43.7 °F 40.3 °F 41.9 °F 93% 29.56 in 2.0 mi SSE 5.8 mph - N/A   Drizzle
2:14 AM 43.7 °F 40.3 °F 41.9 °F 93% 29.56 in 2.5 mi SSE 5.8 mph - N/A   Light Drizzle
2:34 AM 43.9 °F 41.3 °F 42.3 °F 94% 29.55 in 3.0 mi SSE 4.6 mph - N/A   Overcast
3:14 AM 44.2 °F 40.3 °F 42.8 °F 95% 29.54 in 3.0 mi South 6.9 mph - N/A   Overcast
3:34 AM 44.2 °F 41.8 °F 42.8 °F 95% 29.53 in 4.0 mi South 4.6 mph - N/A   Overcast
3:54 AM 44.4 °F 41.2 °F 42.8 °F 94% 29.52 in 4.0 mi South 5.8 mph - N/A   Overcast
4:14 AM 44.4 °F 41.2 °F 42.8 °F 94% 29.52 in 3.0 mi South 5.8 mph - N/A   Overcast
4:34 AM 44.2 °F 40.3 °F 42.8 °F 95% 29.51 in 3.0 mi South 6.9 mph - N/A   Drizzle
4:54 AM 44.4 °F 40.0 °F 42.8 °F 94% 29.53 in 4.0 mi South 8.1 mph - N/A   Drizzle
5:45 AM 44.6 °F 40.7 °F 42.8 °F 93% 29.49 in 7.0 mi SSW 6.9 mph - N/A   Overcast
6:45 AM 39.2 °F 32.0 °F 35.6 °F 87% 29.53 in 7.0 mi SW 11.5 mph 23.0 mph N/A   Overcast
8:45 AM 32.0 °F 23.0 °F 28.4 °F 87% 29.58 in 4.0 mi SW 11.5 mph 23.0 mph N/A   Overcast
10:45 AM 28.4 °F 15.1 °F 26.6 °F 93% 29.58 in 4.0 mi SW 20.7 mph - N/A   Overcast
11:45 AM 28.4 °F 15.1 °F 26.6 °F 93% 29.59 in 10.0 mi WNW 20.7 mph - N/A   Overcast
12:45 PM 28.4 °F 15.1 °F 24.8 °F 86% 29.60 in 10.0 mi WSW 20.7 mph - N/A   Overcast
1:45 PM 26.6 °F 15.7 °F 24.8 °F 93% 29.62 in 10.0 mi SW 12.7 mph 28.8 mph N/A   Overcast
2:45 PM 26.6 °F 14.3 °F 23.0 °F 86% 29.64 in 10.0 mi WSW 16.1 mph - N/A   Overcast
3:45 PM 26.6 °F 16.2 °F 21.2 °F 80% 29.67 in 5.0 mi WSW 11.5 mph 23.0 mph N/A Snow Light Snow
4:45 PM 26.6 °F 14.3 °F 21.2 °F 80% 29.68 in 7.0 mi WSW 16.1 mph - N/A   Overcast
5:45 PM 26.6 °F 16.2 °F 21.2 °F 80% 29.68 in 10.0 mi WSW 11.5 mph 23.0 mph N/A   Overcast
6:45 PM 24.8 °F 14.0 °F 24.8 °F 100% 29.69 in 10.0 mi WSW 11.5 mph 23.0 mph N/A   Overcast
7:45 PM 24.8 °F 14.0 °F 19.4 °F 80% 29.70 in 10.0 mi WSW 11.5 mph 23.0 mph N/A   Overcast
8:14 PM 25.2 °F 13.3 °F 20.1 °F 81% 29.70 in 10.0 mi WSW 13.8 mph - N/A   Overcast
8:34 PM 24.8 °F 11.9 °F 19.9 °F 82% 29.70 in 10.0 mi WSW 16.1 mph 20.7 mph N/A   Overcast
8:45 PM 24.8 °F 14.0 °F 19.4 °F 80% 29.70 in 10.0 mi WSW 11.5 mph 23.0 mph N/A   Overcast
8:54 PM 24.8 °F 12.4 °F 19.8 °F 81% 29.70 in 10.0 mi WSW 15.0 mph 21.9 mph N/A   Overcast
9:14 PM 24.8 °F 12.9 °F 19.8 °F 81% 29.71 in 10.0 mi WSW 13.8 mph 20.7 mph N/A   Overcast
9:34 PM 24.8 °F 12.9 °F 19.9 °F 82% 29.71 in 10.0 mi WSW 13.8 mph 18.4 mph N/A   Overcast
9:54 PM 24.8 °F 12.9 °F 19.8 °F 81% 29.72 in 10.0 mi WSW 13.8 mph - N/A   Overcast
10:14 PM 24.8 °F 14.0 °F 19.4 °F 80% 29.71 in 10.0 mi WSW 11.5 mph - N/A   Overcast
10:34 PM 24.6 °F 13.2 °F 18.5 °F 78% 29.71 in 10.0 mi WSW 12.7 mph 24.2 mph N/A   Overcast
10:54 PM 24.4 °F 11.9 °F 17.6 °F 75% 29.72 in 10.0 mi West 15.0 mph 25.3 mph N/A   Overcast
11:14 PM 23.9 °F 11.7 °F 17.4 °F 76% 29.72 in 10.0 mi West 13.8 mph 20.7 mph N/A   Overcast
11:34 PM 23.9 °F 11.7 °F 17.2 °F 76% 29.72 in 10.0 mi WSW 13.8 mph - N/A   Overcast
11:54 PM 23.5 °F 10.8 °F 16.9 °F 76% 29.73 in 10.0 mi West 15.0 mph 21.9 mph N/A   Overcast